Weather reports worldwide

Advertisment
Milford-Haven, United Kingdom (3604): temperature & dewpoint: 05.07.2020 15:00:00 - 11.07.2020 15:00:00 (BST)Milford-Haven, United Kingdom (3604): temperature -20cm & temperature -100cm: 05.07.2020 15:00:00 - 11.07.2020 15:00:00 (BST)Milford-Haven, United Kingdom (3604): wind speed & gusts: 05.07.2020 15:00:00 - 11.07.2020 15:00:00 (BST)Milford-Haven, United Kingdom (3604): wind direction: 05.07.2020 15:00:00 - 11.07.2020 15:00:00 (BST)Milford-Haven, United Kingdom (3604): reduced air pressure: 05.07.2020 15:00:00 - 11.07.2020 15:00:00 (BST)Milford-Haven, United Kingdom (3604): visibility: 05.07.2020 15:00:00 - 11.07.2020 15:00:00 (BST)Milford-Haven, United Kingdom (3604): precipitation: 05.07.2020 15:00:00 - 11.07.2020 15:00:00 (BST)
Date & Time tt [°C] td [°C] tt -20cm [°C] tt -100cm [°C] ff [km/h] ff [kn] fx [km/h] fx [kn] dd ppp [hPa] vv [km] rr [mm]
11.07.2020 15:00:00 18,5 10,6 - - 15 8 - - W 1028,8 75 0,0
11.07.2020 14:00:00 18,2 10,2 - - 15 8 - - WSW 1028,8 75 0,0
11.07.2020 13:00:00 18,2 10,9 - - 11 6 - - W 1028,7 75 0,0
11.07.2020 12:00:00 17,7 10,7 - - 8 4 - - SW 1028,7 75 0,0
11.07.2020 11:00:00 17,4 9,7 - - 5 3 - - NNE 1028,6 75 0,0
11.07.2020 10:00:00 16,1 10,8 16,7 16,2 8 4 - - N 1028,5 75 0,0
11.07.2020 09:00:00 15,3 11,4 - - 8 4 - - ENE 1028,3 75 0,0
11.07.2020 08:00:00 14,5 12,1 - - 5 3 - - NE 1027,9 75 0,0
11.07.2020 07:00:00 11,6 10,1 - - 9 5 - - N 1027,2 75 0,0
11.07.2020 06:00:00 10,4 9,0 - - 9 5 - - N 1027,0 75 0,0
11.07.2020 05:00:00 10,4 8,6 - - 11 6 - - N 1026,7 75 0,0
11.07.2020 04:00:00 10,7 9,5 - - 11 6 - - N 1026,4 75 0,0
11.07.2020 03:00:00 10,8 9,8 - - 9 5 - - N 1026,1 50 0,0
11.07.2020 02:00:00 11,4 10,2 - - 4 2 - - ENE 1025,9 40 0,0
11.07.2020 01:00:00 12,0 10,8 - - 15 8 - - NW 1025,8 40 0,0
11.07.2020 00:00:00 12,0 10,8 - - 11 6 - - NW 1025,9 40 0,0
10.07.2020 23:00:00 12,4 10,1 - - 11 6 - - WNW 1025,6 75 0,0
10.07.2020 22:00:00 12,1 9,9 - - 9 5 - - WNW 1025,3 75 0,0
10.07.2020 21:00:00 13,2 10,0 - - 15 8 - - WNW 1024,5 75 0,0
10.07.2020 20:00:00 14,5 9,2 - - 13 7 - - WNW 1024,2 75 0,0
10.07.2020 19:00:00 15,6 8,5 - - 13 7 - - WNW 1024,2 75 0,0
10.07.2020 18:00:00 15,8 9,5 - - 15 8 - - NW 1024,0 75 0,0
10.07.2020 17:00:00 16,0 8,5 - - 15 8 - - NW 1023,7 75 0,0
10.07.2020 16:00:00 15,7 8,8 - - 18 10 - - NW 1023,5 75 0,0
10.07.2020 15:00:00 15,7 8,3 - - 21 11 - - NNW 1023,2 75 0,0
10.07.2020 14:00:00 15,7 9,4 - - 21 11 - - NNW 1023,0 75 0,0
10.07.2020 13:00:00 15,1 8,9 - - 21 11 - - NW 1022,7 75 0,0
10.07.2020 12:00:00 14,7 9,7 - - 22 12 - - NNW 1022,1 75 -
10.07.2020 11:00:00 14,4 9,7 - - 24 13 - - NNW 1021,4 75 -
10.07.2020 10:00:00 13,7 9,1 16,5 16,2 21 11 - - NNW 1021,1 75 0,0
10.07.2020 09:00:00 13,1 8,8 - - 22 12 - - NNW 1020,5 75 0,0
10.07.2020 08:00:00 12,5 8,9 - - 22 12 - - NNW 1020,0 75 0,0
10.07.2020 07:00:00 11,3 9,9 - - 15 8 - - NNW 1019,4 70 0,0
10.07.2020 06:00:00 11,5 9,7 - - 18 10 - - NNW 1019,0 75 0,0
10.07.2020 05:00:00 11,1 10,0 - - 9 5 - - NW 1018,5 30 0,0
10.07.2020 04:00:00 11,6 10,1 - - 13 7 - - NNW 1018,1 50 0,0
10.07.2020 03:00:00 11,8 10,7 - - 15 8 - - NNW 1017,8 35 0,0
10.07.2020 02:00:00 12,2 11,2 - - 16 9 - - NNW 1017,5 35 0,0
10.07.2020 01:00:00 11,9 11,5 - - 16 9 - - NW 1017,5 24 0,0
10.07.2020 00:00:00 11,4 11,0 - - 15 8 - - NW 1017,2 20 0,0
09.07.2020 23:00:00 11,5 10,8 - - 11 6 - - N 1016,6 35 0,0
09.07.2020 22:00:00 12,0 11,0 - - 13 7 - - N 1015,9 30 0,0
09.07.2020 21:00:00 13,5 11,4 - - 16 9 - - NNW 1015,2 45 0,0
09.07.2020 20:00:00 13,6 11,3 - - 15 8 - - N 1014,9 55 0,0
09.07.2020 19:00:00 15,3 11,2 - - 18 10 - - N 1014,5 55 0,0
09.07.2020 18:00:00 15,6 12,0 - - 24 13 - - N 1014,0 65 0,0
09.07.2020 17:00:00 14,6 11,9 - - 24 13 - - N 1013,9 55 0,0
09.07.2020 16:00:00 14,4 11,9 - - 24 13 - - N 1013,7 50 0,0
09.07.2020 15:00:00 15,6 12,9 - - 22 12 - - N 1013,1 55 0,0
09.07.2020 14:00:00 15,4 12,9 - - 15 8 - - N 1012,9 65 0,0
09.07.2020 13:00:00 14,9 13,4 - - 16 9 - - N 1012,6 35 0,0
09.07.2020 12:00:00 16,2 14,6 - - 16 9 - - NNW 1011,8 70 0,0
09.07.2020 11:00:00 16,0 15,1 - - 13 7 - - N 1011,3 75 0,0
09.07.2020 10:00:00 15,4 15,4 16,7 16,4 11 6 - - NW 1011,2 14 0,0
09.07.2020 09:00:00 14,4 14,4 - - 16 9 - - W 1010,9 2,8 0,4
09.07.2020 08:00:00 14,3 14,3 - - 18 10 - - W 1010,7 0,1 0,2
09.07.2020 07:00:00 14,4 14,4 - - 22 12 - - W 1010,5 0,5 0,4
09.07.2020 06:00:00 14,6 14,6 - - 22 12 - - WSW 1010,4 1,0 0,8
09.07.2020 05:00:00 14,6 14,6 - - 21 11 - - WSW 1010,5 2,7 0,2
09.07.2020 04:00:00 14,6 14,6 - - 22 12 - - WSW 1010,9 0,4 0,2
09.07.2020 03:00:00 14,6 14,6 - - 21 11 - - SW 1011,0 2,2 0,0
09.07.2020 02:00:00 14,5 14,5 - - 21 11 - - SW 1011,3 3,2 0,2
09.07.2020 01:00:00 14,5 14,4 - - 18 10 50 27 SW 1011,8 5 1,0
09.07.2020 00:00:00 14,4 14,3 - - 22 12 48 26 WSW 1012,3 2,1 0,8
08.07.2020 23:00:00 14,6 14,4 - - 18 10 - - WSW 1012,7 2,5 1,6
08.07.2020 22:00:00 14,6 14,4 - - 18 10 - - SW 1013,1 6 0,2
08.07.2020 21:00:00 14,5 14,4 - - 13 7 - - SW 1013,4 7 1,6
08.07.2020 20:00:00 14,6 14,5 - - 16 9 - - WSW 1013,8 10 0,0
08.07.2020 19:00:00 14,5 14,5 - - 15 8 - - SW 1014,1 5 0,0
08.07.2020 18:00:00 14,5 14,5 - - 16 9 - - WSW 1014,6 0,3 0,2
08.07.2020 17:00:00 14,5 14,5 - - 16 9 - - WSW 1015,1 0,1 0,2
08.07.2020 16:00:00 14,7 14,6 - - 15 8 - - WSW 1015,3 0,4 0,4
08.07.2020 15:00:00 14,5 14,4 - - 15 8 - - WSW 1015,5 0,2 0,6
08.07.2020 14:00:00 14,4 14,0 - - 15 8 - - WSW 1015,5 0,3 0,0
08.07.2020 13:00:00 15,1 14,2 - - 11 6 - - WSW 1015,5 8 0,0
08.07.2020 12:00:00 15,2 14,8 - - 11 6 - - WSW 1015,5 14 0,0
08.07.2020 11:00:00 14,8 14,8 - - 9 5 - - W 1015,3 10 0,0
08.07.2020 10:00:00 14,2 14,2 16,7 16,4 11 6 - - W 1015,0 2,1 0,0
08.07.2020 09:00:00 14,3 14,3 - - 9 5 - - WNW 1014,8 8 0,4
08.07.2020 08:00:00 14,0 14,0 - - 15 8 - - W 1014,6 5 0,4
08.07.2020 07:00:00 13,8 13,8 - - 18 10 - - W 1014,3 2,6 0,4
08.07.2020 06:00:00 13,8 13,8 - - 22 12 - - W 1014,1 5 0,0
08.07.2020 05:00:00 13,8 13,8 - - 21 11 - - W 1014,1 2,9 0,4
08.07.2020 04:00:00 13,9 13,9 - - 21 11 - - W 1014,1 5 0,8
08.07.2020 03:00:00 14,0 14,0 - - 26 14 - - W 1014,5 2,9 0,8
08.07.2020 02:00:00 14,1 14,1 - - 28 15 - - W 1014,9 2,9 1,8
08.07.2020 01:00:00 14,1 14,1 - - 24 13 - - W 1015,3 0,3 0,4
08.07.2020 00:00:00 14,1 14,1 - - 28 15 - - W 1015,5 0,3 0,2
07.07.2020 23:00:00 14,1 14,0 - - 24 13 - - W 1015,6 3,9 0,4
07.07.2020 22:00:00 14,0 14,0 - - 28 15 - - W 1015,7 4,5 0,8
07.07.2020 21:00:00 14,0 13,9 - - 31 17 46 25 W 1015,8 3,2 0,6
07.07.2020 20:00:00 13,9 13,8 - - 28 15 46 25 W 1016,1 1,8 0,8
07.07.2020 19:00:00 14,0 13,5 - - 29 16 50 27 W 1016,5 2,9 0,0
07.07.2020 18:00:00 14,2 13,2 - - 28 15 46 25 WSW 1017,1 10 0,0
07.07.2020 17:00:00 14,3 13,0 - - 28 15 48 26 WSW 1017,6 13 0,0
07.07.2020 16:00:00 14,3 12,4 - - 22 12 - - WSW 1018,2 17 0,0
07.07.2020 15:00:00 14,1 12,1 - - 22 12 - - SW 1018,7 19 0,0
07.07.2020 14:00:00 14,2 11,7 - - 16 9 - - SW 1019,4 23 0,0
07.07.2020 13:00:00 14,2 11,3 - - 21 11 - - SW 1019,9 30 0,0
07.07.2020 12:00:00 13,8 10,3 - - 13 7 - - SW 1020,4 30 0,0
07.07.2020 11:00:00 13,7 11,3 - - 16 9 - - W 1021,0 30 0,0
07.07.2020 10:00:00 14,3 10,9 17,2 16,4 15 8 - - W 1021,2 45 0,0
07.07.2020 09:00:00 13,9 11,1 - - 11 6 - - W 1021,2 50 0,0
07.07.2020 08:00:00 13,7 10,9 - - 9 5 - - W 1021,4 55 0,0
07.07.2020 07:00:00 13,2 11,3 - - 9 5 - - WSW 1021,4 50 0,0
07.07.2020 06:00:00 12,0 10,9 - - 5 3 - - W 1021,7 35 0,0
07.07.2020 05:00:00 11,9 10,3 - - 8 4 - - W 1022,2 29 0,0
07.07.2020 04:00:00 12,8 11,0 - - 4 2 - - WSW 1022,6 26 0,0
07.07.2020 03:00:00 13,3 11,7 - - 11 6 - - W 1023,1 23 0,0
07.07.2020 02:00:00 13,3 11,6 - - 11 6 - - W 1023,7 24 0,0
07.07.2020 01:00:00 13,5 11,6 - - 11 6 - - W 1024,1 24 0,0
07.07.2020 00:00:00 13,4 11,4 - - 11 6 - - W 1024,3 23 0,0
06.07.2020 23:00:00 13,4 10,9 - - 11 6 - - W 1024,6 26 0,0
06.07.2020 22:00:00 13,4 11,0 - - 11 6 - - W 1024,7 27 0,0
06.07.2020 21:00:00 13,9 11,4 - - 13 7 - - W 1024,9 29 0,0
06.07.2020 20:00:00 14,5 11,5 - - 15 8 - - W 1025,1 30 0,0
06.07.2020 19:00:00 15,3 11,0 - - 16 9 - - W 1024,8 35 0,0
06.07.2020 18:00:00 16,3 11,5 - - 16 9 - - W 1025,0 35 0,0
06.07.2020 17:00:00 16,2 11,6 - - 21 11 - - W 1024,9 40 0,0
06.07.2020 16:00:00 18,4 10,4 - - 13 7 - - WNW 1024,8 60 0,0
06.07.2020 15:00:00 17,5 10,8 - - 16 9 - - NW 1024,6 50 0,0
06.07.2020 14:00:00 16,8 10,4 - - 18 10 - - NW 1024,4 40 0,0
06.07.2020 13:00:00 15,9 10,3 - - 21 11 - - WNW 1023,9 35 0,0
06.07.2020 12:00:00 15,9 10,6 - - 26 14 46 25 NW 1023,4 40 0,0
06.07.2020 11:00:00 14,3 9,9 - - 26 14 - - NW 1022,9 30 0,0
06.07.2020 10:00:00 14,2 9,5 16,7 16,5 26 14 - - WNW 1022,2 30 0,0
06.07.2020 09:00:00 13,8 9,5 - - 29 16 52 28 WNW 1021,7 30 0,0
06.07.2020 08:00:00 13,3 9,7 - - 26 14 46 25 WNW 1020,9 30 0,0
06.07.2020 07:00:00 12,3 9,8 - - 22 12 - - W 1019,9 22 0,0
06.07.2020 06:00:00 12,0 9,7 - - 16 9 - - WNW 1019,7 23 0,0
06.07.2020 05:00:00 11,8 9,5 - - 21 11 - - WNW 1019,2 25 0,0
06.07.2020 04:00:00 11,5 9,4 - - 21 11 - - WNW 1018,5 22 0,0
06.07.2020 03:00:00 11,8 9,8 - - 18 10 - - WNW 1018,3 20 0,0
06.07.2020 02:00:00 12,3 9,8 - - 22 12 46 25 WNW 1018,0 19 0,0
06.07.2020 01:00:00 12,6 10,1 - - 24 13 46 25 W 1017,8 19 0,0
06.07.2020 00:00:00 13,0 10,1 - - 26 14 46 25 W 1017,0 20 0,0
05.07.2020 23:00:00 13,0 10,8 - - 24 13 48 26 W 1016,5 13 0,0
05.07.2020 22:00:00 13,3 9,3 - - 26 14 50 27 W 1015,9 21 0,0
05.07.2020 21:00:00 13,5 10,4 - - 35 19 57 31 W 1015,1 12 0,0
05.07.2020 20:00:00 13,9 10,4 - - 39 21 63 34 W 1014,6 12 0,0
05.07.2020 19:00:00 14,4 10,3 - - 39 21 59 32 W 1014,0 12 0,0
05.07.2020 18:00:00 14,7 10,5 - - 39 21 59 32 W 1014,1 13 0,0
05.07.2020 17:00:00 15,2 10,8 - - 39 21 61 33 W 1013,9 12 0,0
05.07.2020 16:00:00 15,3 10,8 - - 46 25 65 35 W 1013,6 14 0,0
05.07.2020 15:00:00 15,6 10,9 - - 34 18 63 34 W 1013,5 16 0,0

tt = temperature
td = dewpoint
tt -20cm = temperature -20cm
tt -100cm = temperature -100cm
ff = wind speed
fx = gusts
dd = wind direction
ppp = reduced air pressure
vv = visibility
rr = precipitation

Next stations